GW6891 Weather Reports


time (UTC)temp
C
wind
direction
speed
KPH
gust
KPH
rain 1hr
cm
rain 24hr
cm
rain mn
cm
humidity
%
barometer
mb
20260509024505 24 342 4.8 4.8 0.00 0.00 0.00 49 1022.7
20260509024004 23 270 1.6 3.2 0.00 0.00 0.00 48 1022.7
20260509023504 23 331 1.6 3.2 0.00 0.00 0.00 50 1022.7
20260509023005 23 159 6.4 6.4 0.00 0.00 0.00 48 1022.7
20260509022506 24 198 6.4 9.7 0.00 0.00 0.00 48 1023.0
20260509022004 25 346 1.6 1.6 0.00 0.00 0.00 50 1023.0
20260509021504 25 341 3.2 4.8 0.00 0.00 0.00 49 1023.0
20260509021004 25 337 3.2 3.2 0.00 0.00 0.00 49 1023.0
20260509020504 24 8 3.2 6.4 0.00 0.00 0.00 48 1023.0
20260509020009 24 82 3.2 4.8 0.00 0.00 0.00 48 1023.4
20260509015504 24 119 4.8 9.7 0.00 0.00 0.00 48 1023.4
20260509015004 25 286 1.6 1.6 0.00 0.00 0.00 48 1023.4
20260509014504 24 351 6.4 6.4 0.00 0.00 0.00 49 1023.4
20260509014004 23 263 3.2 3.2 0.00 0.00 0.00 49 1023.4
20260509013505 24 270 3.2 3.2 0.00 0.00 0.00 48 1023.4
20260509013005 25 217 3.2 3.2 0.00 0.00 0.00 47 1023.4
20260509012504 23 240 3.2 3.2 0.00 0.00 0.00 48 1023.4
20260509012004 23 221 3.2 3.2 0.00 0.00 0.00 48 1023.4
20260509011504 23 244 8.0 9.7 0.00 0.00 0.00 48 1023.4
20260509011005 24 120 3.2 3.2 0.00 0.00 0.00 47 1023.7
20260509010504 24 250 4.8 6.4 0.00 0.00 0.00 46 1023.7
20260509010005 23 260 3.2 3.2 0.00 0.00 0.00 48 1023.7
20260509005505 23 239 4.8 6.4 0.00 0.00 0.00 47 1023.7
20260509005004 24 199 3.2 3.2 0.00 0.00 0.00 46 1023.7
20260509004505 23 294 1.6 3.2 0.00 0.00 0.00 48 1024.4
20260509004005 23 148 6.4 8.0 0.00 0.00 0.00 47 1024.4
20260509003504 23 252 3.2 4.8 0.00 0.00 0.00 48 1024.4
20260509003006 23 235 4.8 6.4 0.00 0.00 0.00 47 1024.4
20260509002505 23 265 1.6 1.6 0.00 0.00 0.00 47 1024.4
20260509002004 24 273 1.6 1.6 0.00 0.00 0.00 45 1024.4
20260509001505 23 297 0.0 1.6 0.00 0.00 0.00 47 1024.4
20260509001004 22 257 1.6 1.6 0.00 0.00 0.00 48 1024.4
20260509000504 22 272 3.2 3.2 0.00 0.00 0.00 46 1024.4
20260509000005 22 273 1.6 1.6 0.00 0.00 0.00 48 1024.4
20260508235504 22 259 1.6 1.6 0.00 0.00 0.00 46 1024.4
20260508235004 22 287 0.0 0.0 0.00 0.00 0.00 47 1024.4
20260508234504 22 307 1.6 1.6 0.00 0.00 0.00 46 1024.4
20260508234005 22 289 0.0 1.6 0.00 0.00 0.00 47 1024.4
20260508233504 21 277 3.2 3.2 0.00 0.00 0.00 49 1024.4
20260508233004 21 257 1.6 1.6 0.00 0.00 0.00 48 1024.4
20260508232504 19 279 1.6 1.6 0.00 0.00 0.00 51 1024.4
20260508232005 20 270 1.6 1.6 0.00 0.00 0.00 50 1024.4
20260508231506 20 279 0.0 0.0 0.00 0.00 0.00 51 1024.4
20260508231006 19 264 1.6 1.6 0.00 0.00 0.00 51 1024.4
20260508230504 18 279 0.0 1.6 0.00 0.00 0.00 52 1024.4
20260508230004 18 293 0.0 0.0 0.00 0.00 0.00 55 1023.7
20260508225504 17 287 1.6 1.6 0.00 0.00 0.00 56 1023.7
20260508225005 17 279 1.6 1.6 0.00 0.00 0.00 54 1023.7
20260508224504 17 302 0.0 1.6 0.00 0.00 0.00 56 1023.7
20260508224006 16 272 0.0 1.6 0.00 0.00 0.00 57 1023.7
20260508223504 15 271 1.6 1.6 0.00 0.00 0.00 59 1023.7
20260508223008 15 279 1.6 1.6 0.00 0.00 0.00 58 1023.7
20260508222504 15 295 0.0 0.0 0.00 0.00 0.00 61 1023.4
20260508222005 14 281 1.6 1.6 0.00 0.00 0.00 60 1023.4
20260508221504 14 273 1.6 1.6 0.00 0.00 0.00 61 1023.4
20260508221005 13 274 0.0 0.0 0.00 0.00 0.00 63 1023.4
20260508220504 13 256 1.6 4.8 0.00 0.00 0.00 62 1023.4
20260508220004 13 292 0.0 0.0 0.00 0.00 0.00 62 1023.4
20260508215504 13 286 1.6 1.6 0.00 0.00 0.00 62 1023.4
20260508215004 13 262 0.0 0.0 0.00 0.00 0.00 63 1023.4
20260508214504 13 253 3.2 3.2 0.00 0.00 0.00 63 1023.0
20260508214005 12 270 1.6 1.6 0.00 0.00 0.00 63 1023.0
20260508213505 12 269 0.0 0.0 0.00 0.00 0.00 63 1023.0
20260508213004 12 265 1.6 3.2 0.00 0.00 0.00 64 1023.0
20260508212504 12 270 0.0 0.0 0.00 0.00 0.00 67 1022.7
20260508212005 12 270 0.0 1.6 0.00 0.00 0.00 67 1022.7
20260508211504 11 269 1.6 3.2 0.00 0.00 0.00 66 1022.7
20260508211004 11 248 1.6 3.2 0.00 0.00 0.00 67 1022.7
20260508210507 11 252 0.0 0.0 0.00 0.00 0.00 69 1022.7
20260508210005 10 252 0.0 0.0 0.00 0.00 0.00 69 1022.7
20260508205506 10 250 1.6 1.6 0.00 0.00 0.00 69 1022.7
20260508205005 10 252 0.0 1.6 0.00 0.00 0.00 70 1022.7
20260508204504 10 253 1.6 1.6 0.00 0.00 0.00 71 1022.7
20260508204005 10 253 0.0 0.0 0.00 0.00 0.00 72 1022.7
20260508203505 10 253 0.0 0.0 0.00 0.00 0.00 72 1022.7
20260508203008 10 253 0.0 0.0 0.00 0.00 0.00 72 1022.7
20260508202505 10 253 0.0 0.0 0.00 0.00 0.00 72 1022.7
20260508202005 10 253 0.0 0.0 0.00 0.00 0.00 72 1022.7
20260508201506 10 253 0.0 0.0 0.00 0.00 0.00 71 1022.7
20260508201004 10 253 0.0 1.6 0.00 0.00 0.00 69 1022.4
20260508200504 10 253 1.6 1.6 0.00 0.00 0.00 69 1022.4
20260508200004 10 253 1.6 1.6 0.00 0.00 0.00 71 1022.0
20260508195505 10 253 0.0 0.0 0.00 0.00 0.00 71 1022.0
20260508195006 11 253 0.0 0.0 0.00 0.00 0.00 69 1022.0
20260508194504 11 253 1.6 1.6 0.00 0.00 0.00 69 1022.0
20260508194004 11 255 0.0 1.6 0.00 0.00 0.00 69 1022.0
20260508193504 10 255 1.6 3.2 0.00 0.00 0.00 70 1021.7
20260508193004 11 262 1.6 1.6 0.00 0.00 0.00 69 1021.7
20260508192504 11 256 1.6 1.6 0.00 0.00 0.00 70 1021.7
20260508192004 11 253 1.6 1.6 0.00 0.00 0.00 70 1021.7
20260508191504 11 254 1.6 3.2 0.00 0.00 0.00 69 1021.7
20260508191005 10 266 1.6 1.6 0.00 0.00 0.00 71 1021.0
20260508190504 10 266 1.6 1.6 0.00 0.00 0.00 73 1021.0
20260508190005 10 267 0.0 0.0 0.00 0.00 0.00 73 1021.0
20260508185506 10 291 1.6 1.6 0.00 0.00 0.00 74 1021.0
20260508185005 10 285 1.6 1.6 0.00 0.00 0.00 72 1021.0
20260508184504 10 259 1.6 1.6 0.00 0.00 0.00 72 1021.7
20260508184004 10 259 0.0 0.0 0.00 0.00 0.00 71 1021.7
20260508183505 10 251 1.6 1.6 0.00 0.00 0.00 71 1021.7
20260508183004 10 254 0.0 1.6 0.00 0.00 0.00 72 1021.7
20260508182505 10 250 1.6 1.6 0.00 0.00 0.00 72 1021.0
20260508182005 10 259 1.6 1.6 0.00 0.00 0.00 72 1021.0
20260508181504 10 240 1.6 1.6 0.00 0.00 0.00 72 1021.0
20260508181004 10 264 1.6 3.2 0.00 0.00 0.00 72 1021.0
20260508180505 10 242 4.8 4.8 0.00 0.00 0.00 71 1021.0
20260508180005 10 264 1.6 1.6 0.00 0.00 0.00 71 1021.0
20260508175505 10 227 3.2 3.2 0.00 0.00 0.00 71 1021.0
20260508175004 10 188 3.2 3.2 0.00 0.00 0.00 72 1021.0
20260508174504 10 214 3.2 3.2 0.00 0.00 0.00 71 1021.7
20260508174004 10 261 1.6 1.6 0.00 0.00 0.00 70 1021.7
20260508173505 10 265 1.6 3.2 0.00 0.00 0.00 70 1021.7
20260508173005 11 222 3.2 3.2 0.00 0.00 0.00 69 1021.7
20260508172505 10 262 3.2 3.2 0.00 0.00 0.00 69 1021.0
20260508172005 11 252 1.6 1.6 0.00 0.00 0.00 68 1021.0
20260508171504 10 187 3.2 3.2 0.00 0.00 0.00 69 1021.0
20260508171004 10 256 1.6 1.6 0.00 0.00 0.00 69 1021.0
20260508170504 10 223 1.6 1.6 0.00 0.00 0.00 69 1021.0
20260508170006 10 249 3.2 4.8 0.00 0.00 0.00 70 1021.0
20260508165504 10 257 1.6 1.6 0.00 0.00 0.00 72 1021.0
20260508165005 9 189 3.2 4.8 0.00 0.00 0.00 74 1021.0
20260508164504 9 259 1.6 1.6 0.00 0.00 0.00 75 1020.7
20260508164005 9 262 3.2 3.2 0.00 0.00 0.00 75 1020.7
20260508163505 9 260 1.6 1.6 0.00 0.00 0.00 77 1020.7
20260508163005 10 261 0.0 0.0 0.00 0.00 0.00 73 1020.7
20260508162505 10 265 0.0 0.0 0.00 0.00 0.00 71 1020.7
20260508162004 10 240 1.6 1.6 0.00 0.00 0.00 71 1020.7
20260508161504 10 300 0.0 0.0 0.00 0.00 0.00 70 1020.7
20260508161004 10 144 3.2 3.2 0.00 0.00 0.00 68 1020.7
20260508160505 10 138 1.6 1.6 0.00 0.00 0.00 68 1020.7
20260508160004 11 149 3.2 4.8 0.00 0.00 0.00 68 1020.7
20260508155504 11 183 3.2 3.2 0.00 0.00 0.00 66 1020.7
20260508155005 11 264 1.6 1.6 0.00 0.00 0.00 66 1020.7
20260508154504 11 264 1.6 1.6 0.00 0.00 0.00 66 1021.0
20260508154005 12 258 1.6 1.6 0.00 0.00 0.00 64 1021.0
20260508153505 12 238 1.6 1.6 0.00 0.00 0.00 62 1021.0
20260508153005 12 265 0.0 0.0 0.00 0.00 0.00 61 1021.0
20260508152504 11 263 1.6 1.6 0.00 0.00 0.00 63 1020.7
20260508152005 11 245 1.6 1.6 0.00 0.00 0.00 64 1020.7
20260508151504 11 261 1.6 1.6 0.00 0.00 0.00 63 1020.7
20260508151005 12 243 1.6 1.6 0.00 0.00 0.00 62 1020.7
20260508150505 12 249 1.6 1.6 0.00 0.00 0.00 63 1020.7
20260508150005 12 239 0.0 1.6 0.00 0.00 0.00 61 1020.7
20260508145506 12 248 1.6 3.2 0.00 0.00 0.00 61 1020.7
20260508145005 12 245 1.6 1.6 0.00 0.00 0.00 61 1020.7
20260508144505 12 246 1.6 1.6 0.00 0.00 0.00 61 1020.7
20260508144007 12 249 1.6 3.2 0.00 0.00 0.00 61 1020.7
20260508143504 12 263 1.6 1.6 0.00 0.00 0.00 61 1020.7
20260508143006 12 272 1.6 1.6 0.00 0.00 0.00 60 1020.7
20260508142504 12 249 3.2 3.2 0.00 0.00 0.00 60 1020.7
20260508142007 12 262 1.6 3.2 0.00 0.00 0.00 59 1020.7
20260508141504 12 260 1.6 1.6 0.00 0.00 0.00 59 1020.7
20260508141006 12 245 1.6 3.2 0.00 0.00 0.00 60 1020.7
20260508140504 12 247 1.6 1.6 0.00 0.00 0.00 62 1020.7
20260508140005 12 247 0.0 1.6 0.00 0.00 0.00 63 1020.7
20260508135504 12 247 1.6 1.6 0.00 0.00 0.00 64 1020.7
20260508135005 12 237 1.6 3.2 0.00 0.00 0.00 63 1020.7
20260508134504 11 250 1.6 1.6 0.00 0.00 0.00 65 1020.7
20260508134007 11 257 1.6 1.6 0.00 0.00 0.00 67 1020.7
20260508133505 11 261 1.6 1.6 0.00 0.00 0.00 66 1020.3
20260508133005 12 261 1.6 1.6 0.00 0.00 0.00 65 1020.3
20260508132504 12 261 1.6 1.6 0.00 0.00 0.00 61 1020.3
20260508132004 12 265 1.6 1.6 0.00 0.00 0.00 62 1020.3
20260508131505 12 265 0.0 0.0 0.00 0.00 0.00 60 1020.3
20260508131004 12 257 0.0 0.0 0.00 0.00 0.00 59 1020.3
20260508130505 12 253 1.6 1.6 0.00 0.00 0.00 59 1020.3
20260508130005 12 266 1.6 1.6 0.00 0.00 0.00 60 1020.0
20260508125504 12 270 0.0 0.0 0.00 0.00 0.00 63 1020.0
20260508125004 13 270 1.6 1.6 0.00 0.00 0.00 61 1020.0
20260508124504 13 270 1.6 1.6 0.00 0.00 0.00 58 1020.3
20260508124005 13 270 0.0 1.6 0.00 0.00 0.00 58 1020.3
20260508123504 13 267 0.0 0.0 0.00 0.00 0.00 58 1020.0
20260508123004 13 261 1.6 1.6 0.00 0.00 0.00 59 1020.0
20260508122504 13 271 0.0 1.6 0.00 0.00 0.00 59 1020.3
20260508122004 12 273 0.0 0.0 0.00 0.00 0.00 61 1020.3
20260508121505 12 274 0.0 0.0 0.00 0.00 0.00 60 1020.3
20260508121004 12 274 0.0 0.0 0.00 0.00 0.00 61 1020.3
20260508120504 12 274 0.0 0.0 0.00 0.00 0.00 62 1020.3
20260508120004 12 274 0.0 0.0 0.00 0.00 0.00 60 1020.3
20260508115504 12 274 0.0 1.6 0.00 0.00 0.00 60 1020.3
20260508115005 13 274 0.0 0.0 0.00 0.00 0.00 59 1020.3
20260508114504 13 273 0.0 1.6 0.00 0.00 0.00 60 1020.3
20260508114004 12 279 0.0 0.0 0.00 0.00 0.00 64 1020.3
20260508113505 12 284 0.0 0.0 0.00 0.00 0.00 63 1020.0
20260508113005 12 284 0.0 0.0 0.00 0.00 0.00 64 1020.0
20260508112505 12 284 0.0 0.0 0.00 0.00 0.00 63 1020.0
20260508112005 12 280 0.0 0.0 0.00 0.00 0.00 65 1020.0
20260508111504 12 280 0.0 0.0 0.00 0.00 0.00 64 1020.0
20260508111004 13 280 0.0 0.0 0.00 0.00 0.00 63 1020.0
20260508110505 13 280 0.0 0.0 0.00 0.00 0.00 63 1020.0
20260508110005 13 280 0.0 0.0 0.00 0.00 0.00 65 1020.0
20260508105504 13 280 0.0 0.0 0.00 0.00 0.00 66 1020.0
20260508105004 12 292 0.0 0.0 0.00 0.00 0.00 64 1020.0
20260508104505 12 316 0.0 0.0 0.00 0.00 0.00 63 1020.0
20260508104004 12 320 0.0 0.0 0.00 0.00 0.00 66 1020.0
20260508103504 12 320 0.0 0.0 0.00 0.00 0.00 68 1020.0
20260508103004 12 320 0.0 0.0 0.00 0.00 0.00 66 1020.0
20260508102505 13 320 0.0 0.0 0.00 0.00 0.00 64 1020.0
20260508102005 12 320 0.0 0.0 0.00 0.00 0.00 62 1020.0
20260508101504 13 320 0.0 0.0 0.00 0.00 0.00 62 1020.0
20260508101005 13 321 0.0 0.0 0.00 0.00 0.00 63 1020.0
20260508100504 13 320 0.0 0.0 0.00 0.00 0.00 61 1020.0
20260508100005 13 320 0.0 0.0 0.00 0.00 0.00 61 1019.6
20260508095505 13 320 0.0 0.0 0.00 0.00 0.00 60 1019.6
20260508095004 13 320 1.6 1.6 0.00 0.00 0.00 60 1019.6
20260508094504 13 320 0.0 0.0 0.00 0.00 0.00 60 1019.6
20260508094005 13 320 0.0 0.0 0.00 0.00 0.00 60 1019.6
20260508093504 13 321 1.6 1.6 0.00 0.00 0.00 58 1019.6
20260508093005 14 311 1.6 1.6 0.00 0.00 0.00 60 1019.6
20260508092505 14 311 1.6 1.6 0.00 0.00 0.00 57 1019.3
20260508092004 14 307 1.6 1.6 0.00 0.00 0.00 55 1019.3
20260508091505 14 306 0.0 0.0 0.00 0.00 0.00 57 1019.3
20260508091005 14 307 0.0 0.0 0.00 0.00 0.00 56 1019.3
20260508090504 14 307 0.0 0.0 0.00 0.00 0.00 54 1019.3
20260508090005 15 307 0.0 0.0 0.00 0.00 0.00 53 1019.3
20260508085504 15 307 1.6 1.6 0.00 0.00 0.00 50 1019.3
20260508085004 15 299 0.0 0.0 0.00 0.00 0.00 53 1019.3
20260508084504 15 300 1.6 1.6 0.00 0.00 0.00 50 1019.0
20260508084004 15 299 0.0 0.0 0.00 0.00 0.00 51 1019.0
20260508083505 15 299 0.0 0.0 0.00 0.00 0.00 51 1018.3
20260508083005 15 299 0.0 1.6 0.00 0.00 0.00 51 1018.3
20260508082507 16 298 0.0 1.6 0.00 0.00 0.00 48 1018.3
20260508082005 16 319 3.2 3.2 0.00 0.00 0.00 49 1018.3
20260508081505 16 274 0.0 0.0 0.00 0.00 0.00 47 1018.3
20260508081004 16 301 0.0 1.6 0.00 0.00 0.00 48 1017.9
20260508080505 16 321 0.0 1.6 0.00 0.00 0.00 47 1017.9
20260508080005 16 321 0.0 0.0 0.00 0.00 0.00 46 1017.9
20260508075505 16 321 0.0 1.6 0.00 0.00 0.00 46 1017.9
20260508075004 16 322 0.0 0.0 0.00 0.00 0.00 45 1017.9
20260508074504 16 331 0.0 0.0 0.00 0.00 0.00 44 1017.6
20260508074004 17 331 0.0 0.0 0.00 0.00 0.00 44 1017.6
20260508073505 17 332 0.0 0.0 0.00 0.00 0.00 43 1017.6
20260508073005 17 332 0.0 0.0 0.00 0.00 0.00 43 1017.6
20260508072505 17 331 1.6 1.6 0.00 0.00 0.00 43 1017.6
20260508072004 17 331 0.0 1.6 0.00 0.00 0.00 43 1017.6
20260508071504 18 332 1.6 1.6 0.00 0.00 0.00 42 1017.6
20260508071005 18 331 0.0 1.6 0.00 0.00 0.00 42 1017.6
20260508070504 19 331 1.6 1.6 0.00 0.00 0.00 42 1017.6
20260508070009 19 354 0.0 3.2 0.00 0.00 0.00 36 1017.6
20260508065505 20 326 0.0 0.0 0.00 0.00 0.00 36 1017.6
20260508065005 20 337 3.2 4.8 0.00 0.00 0.00 33 1017.6
20260508064504 20 336 3.2 3.2 0.00 0.00 0.00 34 1017.3
20260508064004 21 328 0.0 1.6 0.00 0.00 0.00 33 1017.3
20260508063505 21 340 1.6 1.6 0.00 0.00 0.00 32 1017.3
20260508063005 21 315 1.6 1.6 0.00 0.00 0.00 32 1017.3
20260508062506 21 310 1.6 1.6 0.00 0.00 0.00 33 1017.3
20260508062008 22 308 1.6 1.6 0.00 0.00 0.00 32 1017.3
20260508061505 22 328 1.6 1.6 0.00 0.00 0.00 30 1017.3
20260508061005 22 311 0.0 0.0 0.00 0.00 0.00 30 1017.3
20260508060505 23 303 0.0 0.0 0.00 0.00 0.00 30 1017.3
20260508060005 22 301 1.6 1.6 0.00 0.00 0.00 32 1017.3
20260508055504 22 352 0.0 0.0 0.00 0.00 0.00 32 1017.3
20260508055005 21 4 4.8 4.8 0.00 0.00 0.00 30 1017.3
20260508054507 21 283 0.0 1.6 0.00 0.00 0.00 32 1017.6
20260508054005 21 318 0.0 1.6 0.00 0.00 0.00 32 1017.6
20260508053504 21 322 1.6 3.2 0.00 0.00 0.00 32 1017.3
20260508053004 21 306 1.6 1.6 0.00 0.00 0.00 32 1017.3
20260508052504 21 321 1.6 1.6 0.00 0.00 0.00 31 1017.6
20260508052005 22 322 1.6 1.6 0.00 0.00 0.00 32 1017.6
20260508051504 22 332 1.6 3.2 0.00 0.00 0.00 31 1017.6
20260508051004 22 287 1.6 1.6 0.00 0.00 0.00 32 1017.3
20260508050505 22 306 1.6 3.2 0.00 0.00 0.00 30 1017.3
20260508050004 22 288 0.0 1.6 0.00 0.00 0.00 29 1017.9
20260508045504 22 318 0.0 0.0 0.00 0.00 0.00 31 1017.9
20260508045004 22 316 1.6 1.6 0.00 0.00 0.00 29 1017.9
20260508044505 22 300 1.6 1.6 0.00 0.00 0.00 28 1017.9
20260508044006 23 290 0.0 1.6 0.00 0.00 0.00 28 1017.9
20260508043505 23 311 1.6 3.2 0.00 0.00 0.00 29 1017.9
20260508043004 23 239 1.6 1.6 0.00 0.00 0.00 28 1017.9
20260508042504 23 321 1.6 3.2 0.00 0.00 0.00 28 1017.9
20260508042004 24 328 3.2 4.8 0.00 0.00 0.00 27 1017.9
20260508041504 24 344 3.2 3.2 0.00 0.00 0.00 26 1017.9
20260508041006 25 290 0.0 0.0 0.00 0.00 0.00 27 1017.9
20260508040504 23 298 1.6 3.2 0.00 0.00 0.00 27 1017.9
20260508040004 23 300 1.6 1.6 0.00 0.00 0.00 26 1017.9
20260508035504 23 286 4.8 4.8 0.00 0.00 0.00 25 1017.9
20260508035005 23 297 1.6 3.2 0.00 0.00 0.00 25 1017.9
20260508034505 23 291 0.0 0.0 0.00 0.00 0.00 27 1017.9
20260508034004 23 287 4.8 6.4 0.00 0.00 0.00 27 1017.9
20260508033504 23 301 4.8 8.0 0.00 0.00 0.00 28 1018.3
20260508033004 23 242 3.2 3.2 0.00 0.00 0.00 28 1018.3
20260508032505 22 263 0.0 0.0 0.00 0.00 0.00 27 1019.0
20260508032005 22 297 4.8 6.4 0.00 0.00 0.00 28 1019.0
20260508031505 22 256 3.2 3.2 0.00 0.00 0.00 26 1019.0
20260508031005 22 284 1.6 1.6 0.00 0.00 0.00 29 1019.0
20260508030504 21 302 3.2 6.4 0.00 0.00 0.00 26 1019.0
20260508030005 21 232 11.3 11.3 0.00 0.00 0.00 26 1019.0
20260508025504 22 287 0.0 1.6 0.00 0.00 0.00 30 1019.0
20260508025005 22 304 0.0 1.6 0.00 0.00 0.00 31 1019.0